EW9887 Weather Reports


Display with metric or nautical units.
time (UTC)temp
F
wind
direction
speed
MPH
gust
MPH
rain 1hr
in
rain 24hr
in
rain mn
in
humidity
%
barometer
mb
20260507062043 50 0.0 0.0 0.00 0.00 0.00 52 1022.1
20260507061022 50 0.0 0.0 0.00 0.00 0.00 54 1021.7
20260507060021 50 0.0 0.0 0.00 0.00 0.00 55 1021.7
20260507055042 50 0.0 0.0 0.00 0.00 0.00 56 1021.8
20260507054021 50 0.0 0.0 0.00 0.00 0.00 56 1021.8
20260507053022 50 0.0 0.0 0.00 0.00 0.00 57 1021.3
20260507052021 50 0.0 0.0 0.00 0.00 0.00 58 1021.5
20260507051021 50 0.0 0.0 0.00 0.00 0.00 59 1021.5
20260507050021 50 0.0 0.0 0.00 0.00 0.00 59 1021.4
20260507045021 50 0.0 0.0 0.00 0.00 0.00 59 1021.6
20260507044021 50 0.0 0.0 0.00 0.00 0.00 63 1021.9
20260507043021 51 0.0 0.0 0.00 0.00 0.00 64 1021.8
20260507042021 51 0.0 0.0 0.00 0.00 0.00 58 1021.6
20260507041020 51 0.0 0.0 0.00 0.00 0.00 62 1021.5
20260507040041 51 0.0 0.0 0.00 0.00 0.00 62 1021.2
20260507035021 50 0.0 0.0 0.00 0.00 0.00 61 1020.7
20260507034041 50 0.0 0.0 0.00 0.00 0.00 64 1020.1
20260507033021 50 0.0 0.0 0.00 0.00 0.00 73 1019.7
20260507032021 50 0.0 0.0 0.00 0.00 0.00 77 1019.7
20260507031021 51 0.0 0.0 0.00 0.00 0.00 76 1019.2
20260507030021 51 0.0 0.0 0.00 0.00 0.00 75 1019.2
20260507025021 52 0.0 0.0 0.00 0.00 0.00 74 1019.2
20260507024021 53 0.0 0.0 0.00 0.00 0.00 72 1019.1
20260507023021 54 0.0 0.0 0.00 0.00 0.00 70 1019.1
20260507022042 55 0.0 0.0 0.00 0.00 0.00 69 1019.5
20260507021021 56 0.0 0.0 0.00 0.00 0.00 68 1019.6
20260507020021 56 0.0 0.0 0.00 0.00 0.00 66 1019.6
20260507015021 57 0.0 0.0 0.00 0.00 0.00 64 1019.6
20260507014021 59 0.0 0.0 0.00 0.00 0.00 61 1019.8
20260507013020 60 0.0 0.0 0.00 0.00 0.00 59 1019.9
20260507012020 61 261 0.0 1.0 0.00 0.00 0.00 58 1020.0
20260507011041 61 0.0 1.0 0.00 0.00 0.00 57 1020.0
20260507010021 62 261 0.0 1.0 0.00 0.00 0.00 56 1020.3
20260507005022 62 0.0 0.0 0.00 0.00 0.00 55 1020.1
20260507004022 62 262 0.0 3.0 0.00 0.00 0.00 55 1019.9
20260507003022 63 269 0.0 2.0 0.00 0.00 0.00 54 1020.2
20260507002022 63 282 0.0 2.0 0.00 0.00 0.00 53 1020.0
20260507001022 63 278 0.0 3.0 0.00 0.00 0.00 53 1019.8
20260507000023 63 274 1.0 4.0 0.00 0.00 0.00 53 1019.8
20260506235022 63 273 0.0 4.0 0.00 0.00 0.00 53 1019.8
20260506234022 63 263 0.0 5.0 0.00 0.00 0.00 53 1019.9
20260506233042 62 273 0.0 5.0 0.00 0.00 0.00 53 1019.5
20260506232023 62 286 1.0 4.0 0.00 0.00 0.00 54 1019.6
20260506231042 62 287 1.0 5.0 0.00 0.00 0.00 54 1019.5
20260506230023 62 279 1.0 4.0 0.00 0.00 0.00 54 1019.9
20260506225022 62 295 1.0 6.0 0.00 0.00 0.00 54 1019.9
20260506224022 63 218 0.0 4.0 0.00 0.00 0.00 53 1020.1
20260506223022 63 306 1.0 4.0 0.00 0.00 0.00 53 1020.2
20260506222022 63 283 0.0 5.0 0.00 0.00 0.00 54 1020.4
20260506221022 62 318 1.0 5.0 0.00 0.00 0.00 53 1020.6
20260506220022 62 289 1.0 6.0 0.00 0.00 0.00 53 1020.7
20260506215042 61 218 1.0 5.0 0.00 0.00 0.00 52 1020.4
20260506214043 61 316 1.0 4.0 0.00 0.00 0.00 53 1020.5
20260506213021 61 287 1.0 7.0 0.00 0.00 0.00 52 1020.6
20260506212022 61 288 1.0 4.0 0.00 0.00 0.00 52 1020.7
20260506211021 61 330 1.0 4.0 0.00 0.00 0.00 51 1020.8
20260506210022 61 315 1.0 6.0 0.00 0.00 0.00 50 1020.9
20260506205022 61 290 1.0 5.0 0.00 0.00 0.00 48 1020.9
20260506204023 61 272 1.0 6.0 0.00 0.00 0.00 50 1021.0
20260506203022 61 20 0.0 7.0 0.00 0.00 0.00 50 1021.2
20260506202022 61 262 1.0 5.0 0.00 0.00 0.00 49 1021.5
20260506201022 61 286 2.0 7.0 0.00 0.00 0.00 50 1021.7
20260506200042 61 281 1.0 7.0 0.00 0.00 0.00 51 1021.8
20260506195021 61 297 1.0 5.0 0.00 0.00 0.00 54 1021.7
20260506194022 61 294 1.0 4.0 0.00 0.00 0.00 52 1022.0
20260506193042 60 280 1.0 4.0 0.00 0.00 0.00 53 1021.9
20260506192021 60 287 1.0 6.0 0.00 0.00 0.00 53 1022.1
20260506191024 60 281 1.0 4.0 0.00 0.00 0.00 53 1022.1
20260506190022 60 301 0.0 3.0 0.00 0.00 0.00 52 1022.1
20260506185021 60 279 1.0 4.0 0.00 0.00 0.00 54 1022.2
20260506184022 59 340 0.0 1.0 0.00 0.00 0.00 56 1022.3
20260506183021 58 340 0.0 3.0 0.00 0.00 0.00 56 1021.9
20260506182022 58 295 1.0 4.0 0.00 0.00 0.00 51 1021.8
20260506181021 57 317 0.0 3.0 0.00 0.00 0.00 53 1021.8
20260506180022 57 290 1.0 3.0 0.00 0.00 0.00 52 1021.6
20260506175021 56 279 0.0 2.0 0.00 0.01 0.00 53 1021.3
20260506174021 56 278 1.0 5.0 0.00 0.01 0.00 51 1021.2
20260506173022 55 283 1.0 2.0 0.00 0.02 0.00 53 1021.1
20260506172021 55 283 0.0 4.0 0.00 0.02 0.00 53 1021.1
20260506171022 54 286 1.0 3.0 0.00 0.02 0.00 53 1020.7
20260506170021 55 292 1.0 5.0 0.00 0.03 0.00 53 1020.9
20260506165021 55 290 0.0 4.0 0.00 0.03 0.00 54 1021.1
20260506164021 56 344 0.0 3.0 0.00 0.04 0.00 53 1021.5
20260506163021 56 36 1.0 4.0 0.00 0.04 0.00 52 1021.5
20260506162041 56 17 1.0 4.0 0.00 0.04 0.00 52 1021.4
20260506161021 56 26 1.0 6.0 0.00 0.05 0.00 52 1021.2
20260506160021 55 43 1.0 5.0 0.00 0.05 0.00 52 1020.9
20260506155021 54 28 1.0 10.0 0.00 0.05 0.00 54 1020.9
20260506154021 52 23 0.0 6.0 0.00 0.05 0.00 57 1020.5
20260506153021 50 0.0 0.0 0.00 0.06 0.00 60 1020.1
20260506152021 49 0.0 0.0 0.00 0.06 0.00 64 1019.7
20260506151021 47 47 0.0 3.0 0.00 0.06 0.00 66 1019.3
20260506150021 46 105 0.0 2.0 0.00 0.06 0.00 70 1019.3
20260506145022 45 204 0.0 1.0 0.00 0.07 0.00 71 1018.9
20260506144021 44 204 0.0 1.0 0.00 0.07 0.00 72 1018.9
20260506143021 43 0.0 0.0 0.00 0.07 0.00 71 1018.8
20260506142021 43 0.0 0.0 0.00 0.08 0.00 71 1018.8
20260506141041 42 204 0.0 2.0 0.00 0.08 0.00 72 1018.2
20260506140040 42 204 0.0 1.0 0.00 0.08 0.00 71 1018.1
20260506135021 42 204 0.0 2.0 0.00 0.08 0.00 72 1017.9
20260506134020 41 0.0 2.0 0.00 0.08 0.00 72 1017.9
20260506133021 41 204 0.0 1.0 0.00 0.08 0.00 73 1017.8
20260506132021 40 0.0 2.0 0.00 0.08 0.00 74 1017.3
20260506131020 40 0.0 2.0 0.00 0.08 0.00 73 1017.6
20260506130021 40 0.0 0.0 0.00 0.08 0.00 73 1017.5
20260506125043 40 0.0 2.0 0.00 0.08 0.00 74 1017.2
20260506124043 39 0.0 1.0 0.00 0.08 0.00 75 1016.8
20260506123023 39 204 1.0 2.0 0.00 0.08 0.00 76 1016.8
20260506122022 39 0.0 0.0 0.00 0.08 0.00 76 1017.1
20260506121022 38 0.0 0.0 0.00 0.08 0.00 78 1016.7
20260506120022 38 204 1.0 2.0 0.00 0.08 0.00 79 1016.6
20260506115022 37 204 0.0 2.0 0.00 0.08 0.00 80 1016.5
20260506114042 37 204 1.0 2.0 0.00 0.08 0.00 82 1016.5
20260506113023 37 204 0.0 2.0 0.00 0.08 0.00 83 1016.5
20260506112042 37 204 0.0 2.0 0.00 0.08 0.00 85 1016.2
20260506111022 36 204 0.0 2.0 0.00 0.08 0.00 86 1015.9
20260506110023 36 0.0 2.0 0.00 0.08 0.00 88 1016.1
20260506105042 36 204 0.0 2.0 0.00 0.08 0.00 88 1016.4
20260506104042 36 0.0 0.0 0.00 0.08 0.00 89 1016.4
20260506103022 36 204 0.0 2.0 0.00 0.08 0.00 89 1016.0
20260506102022 36 0.0 1.0 0.00 0.08 0.00 89 1016.0
20260506101041 36 204 1.0 2.0 0.00 0.08 0.00 90 1016.0
20260506100021 36 204 1.0 3.0 0.00 0.08 0.00 90 1016.1
20260506095022 35 204 0.0 2.0 0.00 0.08 0.00 90 1015.7
20260506094023 35 204 0.0 2.0 0.00 0.08 0.00 90 1015.6
20260506093043 35 0.0 2.0 0.00 0.08 0.00 90 1015.6
20260506092022 35 204 0.0 1.0 0.00 0.08 0.00 90 1015.6
20260506091022 35 204 0.0 2.0 0.00 0.08 0.00 90 1015.8
20260506090042 35 204 0.0 1.0 0.00 0.08 0.00 90 1015.8
20260506085023 35 204 1.0 2.0 0.00 0.08 0.00 90 1016.0
20260506084022 35 203 0.0 1.0 0.00 0.08 0.00 89 1015.7
20260506083022 36 0.0 0.0 0.00 0.08 0.00 90 1016.0
20260506082022 37 0.0 0.0 0.00 0.08 0.00 90 1016.5
20260506081041 37 0.0 0.0 0.00 0.08 0.00 90 1016.4
20260506073022 38 0.0 0.0 0.00 0.08 0.00 90 1016.8
20260506072102 38 0.0 2.0 0.00 0.08 0.00 90 1016.8
20260506071022 38 0.0 0.0 0.00 0.08 0.00 90 1016.2